Flag for Australia Weather past 2 weeks in Adelaide, South Australia, Australia

Now
57 °F

Passing clouds.


Feels Like: 55 °F
Forecast: 45 / 61 °F
Wind: 9 mph from Southeast

Location: Adelaide Airport

Current Time: Apr 19, 2015 at 9:46:47 AM

Latest Report: Apr 19, 2015 at 9:00 AM


Visibility: N/A

Pressure: 30.48 "Hg

Humidity: 55%

Dew point: 41 °F

Location of AdelaideLocation

Historic Weather in Adelaide — Graph

°F

Adelaide temperature yesterday

Maximum temperature yesterday: 66 °F (at 2:00 PM)
Minimum temperature yesterday: 52 °F (at 11:00 PM)
Average temperature yesterday: 59 °F

Past Weeks' High & Low Weather Summary

 TemperatureHumidityPressure
High82 °F (Apr 14, 1:00 PM)100% (Apr 5, 11:30 PM)30.48 "Hg (Apr 5, 11:30 PM)
Low46 °F (Apr 10, 6:30 AM)23% (Apr 14, 10:30 AM)29.74 "Hg (Apr 6, 4:30 AM)
Average61 °F68%30.10 "Hg
* Reported Apr 4 9:30 AM — Apr 19 8:30 AM, Adelaide, Weather by CustomWeather, © 2015

Note: Actual official high and low records may vary slightly from our data, if they occured in-between our weather recording intervals... More about our weather records

Advertising

Adelaide weather history for previous 24 hours

 ConditionsComfort  
Time TempWeatherWind HumidityBarometerVisibility
8:30 AM
Sun, Apr 19
55 °FPassing clouds.7 mph59%30.48 "HgN/A
8:00 AM54 °FPassing clouds.7 mph63%30.45 "HgN/A
7:30 AM50 °FPassing clouds.No wind82%30.42 "HgN/A
7:00 AM46 °FPassing clouds.No wind82%30.39 "HgN/A
6:30 AM50 °FPassing clouds.No wind76%30.39 "HgN/A
6:00 AM50 °FScattered showers. Passing clouds.5 mph76%30.39 "HgN/A
5:30 AM52 °FScattered showers. Passing clouds.6 mph72%30.36 "HgN/A
5:00 AM48 °FPassing clouds.2 mph82%30.33 "HgN/A
4:30 AM50 °FPassing clouds.6 mph71%30.33 "HgN/A
4:00 AM50 °FPassing clouds.7 mph76%30.33 "HgN/A
3:30 AM48 °FPassing clouds.6 mph82%30.30 "HgN/A
3:00 AM50 °FPassing clouds.6 mph76%30.30 "HgN/A
2:30 AM48 °FPassing clouds.6 mph82%30.30 "HgN/A
2:00 AM50 °FPassing clouds.5 mph82%30.30 "HgN/A
1:30 AM50 °FPassing clouds.6 mph82%30.30 "HgN/A
1:00 AM52 °FPassing clouds.6 mph72%30.27 "HgN/A
12:30 AM52 °FPassing clouds.8 mph77%30.27 "HgN/A
12:00 AM54 °FScattered showers. Passing clouds.8 mph72%30.27 "HgN/A
11:30 PM
Sat, Apr 18
54 °FScattered showers. Passing clouds.6 mph72%30.27 "HgN/A
11:00 PM52 °FPassing clouds.6 mph82%30.24 "HgN/A
10:30 PM54 °FScattered showers. Passing clouds.7 mph77%30.24 "HgN/A
10:00 PM54 °FPassing clouds.12 mph77%30.24 "HgN/A
9:30 PM55 °FScattered showers. Passing clouds.13 mph72%30.21 "HgN/A
9:00 PM57 °FScattered showers. Passing clouds.13 mph67%30.21 "HgN/A
8:30 PM57 °FPassing clouds.8 mph67%30.18 "HgN/A
8:00 PM57 °FPassing clouds.9 mph72%30.18 "HgN/A
7:30 PM57 °FPassing clouds.10 mph77%30.15 "HgN/A
7:00 PM57 °FPartly cloudy.8 mph77%30.12 "HgN/A
6:30 PM57 °FPassing clouds.10 mph82%30.12 "HgN/A
6:00 PM57 °FPassing clouds.12 mph88%30.09 "HgN/A
5:30 PM57 °FSprinkles. Passing clouds.12 mph88%30.09 "HgN/A
5:00 PM57 °FSprinkles. Partly sunny.18 mph94%30.07 "Hg4 mi
4:30 PM59 °FPartly sunny.20 mph77%30.07 "HgN/A
4:00 PM59 °FSprinkles. Partly sunny.20 mph94%30.04 "Hg2 mi
3:30 PM59 °FSprinkles. Partly sunny.18 mph100%30.04 "Hg2 mi
3:00 PM64 °FSprinkles. Partly sunny.21 mph78%30.01 "Hg4 mi
2:30 PM64 °FSprinkles. Partly sunny.17 mph83%30.01 "Hg4 mi
2:00 PM66 °FScattered clouds.18 mph73%30.01 "HgN/A
1:30 PM64 °FScattered clouds.20 mph78%30.01 "HgN/A
12:30 PM64 °FScattered clouds.18 mph78%30.04 "HgN/A
12:00 PM63 °FSprinkles. Partly sunny.20 mph88%30.07 "Hg2 mi
11:30 AM63 °FPartly sunny.21 mph77%30.07 "HgN/A
11:00 AM63 °FScattered clouds.18 mph83%30.07 "HgN/A
10:30 AM61 °FSprinkles. Partly sunny.17 mph83%30.07 "Hg3 mi
10:00 AM63 °FPartly sunny.17 mph68%30.07 "HgN/A
9:30 AM63 °FScattered clouds.14 mph68%30.07 "HgN/A
9:00 AM63 °FBroken clouds.15 mph68%30.07 "HgN/A
Weather by CustomWeather, © 2015

See weather overviewHow to use our weather pages